#timestamp,LO_Frequency,Hit,StdDev 
1590620415.8,286046998.7,N
1590620435.6,286046998.8,N
1590620455.4,286047000.2,N
1590620475.3,286046999.9,N
1590620495.1,286047000.4,N
1590620515.9,286047000.6,N
1590620535.7,286047000.9,N
1590620555.5,286047000.5,N
1590620575.4,286047000.1,N
1590620595.2,286047001.0,N
1590620615.1,286046999.3,N
1590620616.0,286046999.3,N
1590620665.8,286047001.9,E
1590620675.7,286047001.9,N
1590620695.6,286047000.1,P
1590620715.4,286047000.9,N
1590620735.2,286046999.7,N
1590620755.1,286047000.6,N
1590620756.0,286047000.6,N
1590620775.8,286047001.5,N
1590620795.7,286047001.5,N
1590620815.5,286047001.4,N
1590620835.3,286047003.6,Y
1590620855.2,286047004.4,P
1590620875.0,286047001.8,N
1590620875.9,286047001.8,N
1590620895.8,286047002.4,N
1590620915.6,286047001.2,N
1590620935.4,286046998.2,N
1590620955.3,286046998.9,N
1590620975.1,286047000.8,N
1590620995.8,286047002.7,N
1590621015.7,286047001.9,N
1590621035.5,286047002.3,N
1590621055.4,286047002.8,N
1590621075.2,286047002.1,N
1590621095.0,286047002.1,N
1590621095.9,286047002.1,N
1590621115.8,286047002.5,N
1590621135.6,286047003.8,N
1590621155.4,286047002.8,N
1590621175.3,286047004.4,Y
1590621195.1,286047000.6,P
1590621215.9,286047002.6,P
1590621235.7,286047000.0,N
1590621255.5,286047001.5,N
1590621275.4,286047002.5,N
1590621295.2,286047000.5,N
1590621315.1,286046999.7,N
1590621316.0,286046999.7,N
1590621335.8,286047002.3,N
1590621355.6,286047002.7,N
1590621375.5,286047002.6,N
1590621395.3,286047001.9,N
1590621415.2,286047002.1,N
1590621435.9,286047002.3,N
1590621455.7,286047002.5,N
1590621475.6,286047002.4,N
1590621495.4,286047000.2,N
1590621515.2,286047000.8,N
1590621535.1,286046999.7,N
1590621536.0,286046999.7,N
1590621555.8,286047002.7,N
1590621575.7,286047001.7,N
1590621595.5,286047002.1,N
1590621615.3,286047000.7,N
1590621635.2,286047000.6,N
1590621655.0,286046998.1,N
1590621655.9,286046998.1,N
1590621675.8,286047000.9,N
1590621695.6,286047002.0,N
1590621715.4,286047002.8,N
1590621735.3,286047000.1,N
1590621755.1,286046998.8,N
1590621775.9,286046998.6,N
1590621795.7,286046998.1,N
1590621815.5,286047000.5,N
1590621835.4,286047000.5,N
1590621855.2,286046998.1,N
1590621875.1,286046998.5,N
1590621876.0,286046998.5,N
1590621895.8,286046998.7,N
1590621915.6,286047000.8,N
1590621935.5,286047000.9,N
1590621955.3,286047000.6,N
1590621975.2,286047000.9,N
1590621995.9,286047000.0,N
1590622015.7,286046998.9,N
1590622035.6,286046998.6,N
1590622055.4,286046997.1,N
1590622075.2,286047001.0,N
1590622095.1,286047001.2,N
1590622096.0,286047001.2,N
1590622115.8,286047000.4,N
1590622135.7,286047000.6,N
1590622155.5,286047002.1,N
1590622175.3,286047002.7,N
1590622195.2,286047001.7,N
1590622215.0,286047003.0,N
1590622215.9,286047003.0,N
1590622235.8,286047001.3,N
1590622255.6,286047004.4,N
1590622275.4,286047003.9,N
1590622295.3,286047001.7,N
1590622315.1,286047003.9,N
1590622335.9,286047003.2,N
1590622355.7,286047004.0,N
1590622375.5,286047006.0,Y
1590622395.4,286047001.5,P
1590622415.2,286047001.4,P
1590622435.0,286047001.9,P
1590622436.0,286047001.9,Y
1590622455.8,286046998.4,P
1590622475.6,286046998.6,N
1590622495.5,286046996.7,N
1590622515.3,286046999.4,N
1590622535.1,286046998.7,N
1590622555.9,286046997.2,N
1590622575.7,286046995.8,N
1590622595.6,286046997.8,N
1590622615.4,286046997.1,N
1590622635.2,286046996.8,N
1590622655.1,286046996.9,N
1590622656.0,286046996.9,N
1590622675.8,286046997.7,N
1590622695.7,286046997.5,N
1590622715.5,286046995.2,Y
1590622735.3,286046999.6,P
1590622755.2,286046999.0,N
1590622775.0,286046999.9,N
1590622775.9,286046999.9,N
1590622795.8,286047002.8,Y
1590622815.6,286047000.2,P
1590622835.4,286047000.5,N
1590622855.3,286046998.2,P
1590622875.1,286046999.8,N
1590622895.9,286047002.1,N
1590622915.7,286047004.3,Y
1590622935.5,286047002.7,P
1590622955.4,286047001.8,N
1590622975.2,286047004.2,P
1590622995.0,286047003.8,N
1590622995.9,286047003.8,N
1590623015.8,286047005.6,Y
1590623035.6,286047000.1,P
1590623055.5,286047000.0,N
1590623075.3,286047000.5,N
1590623095.2,286047002.8,N
1590623115.9,286047004.4,Y
1590623135.7,286047001.2,P
1590623155.6,286047002.7,P
1590623175.4,286047001.6,N
1590623195.3,286047002.1,Y
1590623215.1,286046998.3,P
1590623216.0,286046998.3,N
1590623235.8,286046998.2,N
1590623255.7,286046998.3,N
1590623275.5,286046996.5,N
1590623295.3,286046999.3,N
1590623315.2,286046999.5,N
1590623335.0,286046998.2,N
1590623335.9,286046998.2,N
1590623355.8,286046998.5,N
1590623375.6,286046999.1,N
1590623395.4,286046997.1,N
1590623415.3,286046997.5,N
1590623435.1,286046995.6,Y
1590623455.9,286046998.7,P
1590623475.7,286046998.1,P
1590623495.5,286046999.6,N
1590623515.4,286046996.5,Y
1590623535.2,286046998.2,P
1590623555.0,286047001.0,P
1590623555.9,286047001.0,N
1590623575.8,286047000.6,N
1590623595.6,286047000.2,N
1590623615.5,286046999.7,N
1590623635.3,286047000.3,N
1590623655.1,286046998.6,N
1590623675.9,286046996.6,Y
1590623695.7,286046996.6,P
1590623715.6,286046997.3,N
1590623735.4,286046997.6,N
1590623755.2,286046995.0,Y
1590623775.1,286046997.9,P
1590623776.0,286046997.9,P
1590623795.8,286046996.9,P
1590623815.7,286046998.0,Y
1590623835.5,286047000.0,P
1590623855.3,286047000.5,N
1590623875.2,286047000.4,N
1590623895.0,286046999.7,N
1590623895.9,286046999.7,N
1590623915.7,286047000.0,N
1590623935.6,286047000.4,N
1590623955.4,286047002.7,Y
1590623975.3,286046999.9,P
1590623995.1,286047002.1,P
